User: anonymous   Login
Location: Unspecified
(0.0000°N, 0.0000°E)
Time: 21:04:25
(UTC+00:00)
Language:

STARLINK-34448 - Orbit

View from above orbital plane
View from above orbital plane
View from above satellite
View from above satellite

Ground track
Ground track

The orbit is defined by the following mean orbital elements,

1 64291U          26145.29916946 +.00000000 +00000-0 +22234-3 0 00005
2 64291  70.0021   1.3141 0002348 274.7031  85.3860 14.98337011    02
Epoch (UTC): 25 May 2026 07:10:48
Eccentricity: 0.0002348
inclination: 70.0021°
perigee height: 570 km
apogee height: 574 km
right ascension of ascending node: 1.3141°
argument of perigee: 274.7031°
revolutions per day: 14.98337011
mean anomaly at epoch: 85.3860°

The dashed part of the orbit path shows where the satellite is in the earth's shadow,  

DLR